When you browse on this site, cookies collect data to enhance your experience and personalize the content and advertising you see.
Visit our Privacy Policy to learn more. By continuing to use the site, you agree to this use of cookies and data.
  • In Hungary
  • List of Countries
  • For 7 days
  • Water Temperature
  • Satellite Maps
  • Weather Map
  • News
  • Weather Widgets
  • user-avatar
    Login

    Hourly Weather Lawton

    Today, 15 February, Friday

    Time Temperature Precipitation Wind Pressure Humidity
    00:00 +10°C° 0 mm 6 mps 726 mmHg 54%
    01:00 +9°C° 0 mm 7 mps 726 mmHg 59%
    02:00 +6°C° 0 mm 7 mps 726 mmHg 64%
    03:00 +5°C° 0 mm 7 mps 726 mmHg 63%
    04:00 +4°C° 0 mm 6 mps 726 mmHg 63%
    05:00 +2°C° 0 mm 5 mps 725 mmHg 59%
    06:00 +2°C° 0 mm 5 mps 725 mmHg 58%
    07:00 +3°C° 0 mm 4 mps 726 mmHg 57%
    08:00 +3°C° 0 mm 4 mps 726 mmHg 56%
    09:00 +4°C° 0 mm 4 mps 726 mmHg 55%
    10:00 +6°C° 0 mm 5 mps 726 mmHg 55%
    11:00 +7°C° 0 mm 5 mps 726 mmHg 54%
    12:00 +7°C° 0 mm 6 mps 726 mmHg 54%
    13:00 +8°C° 0 mm 6 mps 726 mmHg 54%
    14:00 +8°C° 0 mm 7 mps 726 mmHg 54%
    15:00 +6°C° 0 mm 7 mps 727 mmHg 57%
    16:00 +5°C° 0 mm 7 mps 728 mmHg 59%
    17:00 +3°C° 0 mm 7 mps 728 mmHg 62%
    18:00 +2°C° 0 mm 7 mps 729 mmHg 64%
    19:00 +1°C° 0 mm 6 mps 730 mmHg 66%
    20:00 -2°C° 0 mm 6 mps 730 mmHg 68%
    21:00 -2°C° 0 mm 6 mps 730 mmHg 69%
    22:00 -2°C° 0 mm 5 mps 730 mmHg 71%
    23:00 -4°C° 0 mm 5 mps 731 mmHg 72%

    Tomorrow, 16 February, Saturday

    Time Temperature Precipitation Wind Pressure Humidity
    00:00 -4°C° 0 mm 5 mps 730 mmHg 73%
    01:00 -4°C° 0 mm 5 mps 730 mmHg 74%
    02:00 -4°C° 0 mm 4 mps 730 mmHg 74%
    03:00 -4°C° 0 mm 4 mps 730 mmHg 76%
    04:00 -4°C° 0 mm 4 mps 729 mmHg 77%
    05:00 -4°C° 0 mm 4 mps 729 mmHg 78%
    06:00 -3°C° 0 mm 4 mps 729 mmHg 76%
    07:00 -2°C° 0 mm 3 mps 729 mmHg 74%
    08:00 -1°C° 0 mm 3 mps 729 mmHg 72%
    09:00 +1°C° 0 mm 3 mps 728 mmHg 69%
    10:00 +3°C° 0 mm 4 mps 728 mmHg 66%
    11:00 +5°C° 0 mm 4 mps 727 mmHg 63%
    12:00 +6°C° 0 mm 4 mps 726 mmHg 61%
    13:00 +7°C° 0 mm 5 mps 724 mmHg 59%
    14:00 +9°C° 0 mm 5 mps 723 mmHg 58%
    15:00 +9°C° 0 mm 5 mps 722 mmHg 60%
    16:00 +8°C° 0 mm 4 mps 721 mmHg 63%
    17:00 +9°C° 0 mm 3 mps 720 mmHg 65%
    18:00 +7°C° 0 mm 4 mps 720 mmHg 72%
    19:00 +6°C° 0 mm 4 mps 720 mmHg 79%
    20:00 +5°C° 0 mm 4 mps 720 mmHg 86%
    21:00 +5°C° 0 mm 4 mps 720 mmHg 87%
    22:00 +5°C° 0 mm 3 mps 720 mmHg 89%
    23:00 +6°C° 0 mm 2 mps 720 mmHg 91%

    Day after tomorrow, 17 February, Sunday

    Time Temperature Precipitation Wind Pressure Humidity
    00:00 +5°C° 0 mm 4 mps 721 mmHg 77%
    01:00 +6°C° 0 mm 5 mps 722 mmHg 62%
    02:00 +5°C° 0 mm 7 mps 723 mmHg 48%
    03:00 +4°C° 0 mm 7 mps 724 mmHg 54%
    04:00 +2°C° 0 mm 8 mps 725 mmHg 61%
    05:00 0°C° 0 mm 8 mps 726 mmHg 67%
    06:00 +1°C° 0 mm 8 mps 728 mmHg 65%
    07:00 +2°C° 0 mm 7 mps 729 mmHg 62%
    08:00 +3°C° 0 mm 7 mps 730 mmHg 60%
    09:00 +5°C° 0 mm 7 mps 730 mmHg 54%
    10:00 +7°C° 0 mm 6 mps 730 mmHg 48%
    11:00 +9°C° 0 mm 5 mps 731 mmHg 42%
    12:00 +9°C° 0 mm 5 mps 730 mmHg 38%
    13:00 +11°C° 0 mm 4 mps 730 mmHg 35%
    14:00 +12°C° 0 mm 4 mps 730 mmHg 31%
    15:00 +11°C° 0 mm 3 mps 730 mmHg 35%
    16:00 +10°C° 0 mm 3 mps 731 mmHg 40%
    17:00 +9°C° 0 mm 3 mps 731 mmHg 44%
    18:00 +7°C° 0 mm 4 mps 732 mmHg 46%
    19:00 +5°C° 0 mm 5 mps 733 mmHg 48%
    20:00 +3°C° 0 mm 6 mps 733 mmHg 50%
    21:00 +2°C° 0 mm 7 mps 734 mmHg 51%
    22:00 0°C° 0 mm 7 mps 734 mmHg 53%
    23:00 -1°C° 0 mm 8 mps 734 mmHg 54%

    18 February, Monday

    Time Temperature Precipitation Wind Pressure Humidity
    00:00 -2°C° 0 mm 7 mps 734 mmHg 56%
    01:00 -3°C° 0 mm 6 mps 735 mmHg 57%
    02:00 -4°C° 0 mm 5 mps 735 mmHg 58%
    03:00 -4°C° 0 mm 6 mps 736 mmHg 58%
    04:00 -5°C° 0 mm 6 mps 736 mmHg 58%
    05:00 -6°C° 0 mm 7 mps 736 mmHg 57%
    06:00 -5°C° 0 mm 6 mps 737 mmHg 55%
    07:00 -4°C° 0 mm 6 mps 737 mmHg 54%
    08:00 -4°C° 0 mm 6 mps 738 mmHg 52%
    09:00 -2°C° 0 mm 6 mps 738 mmHg 48%
    10:00 -1°C° 0 mm 6 mps 738 mmHg 44%
    11:00 +2°C° 0 mm 6 mps 738 mmHg 40%
    12:00 +3°C° 0 mm 6 mps 737 mmHg 39%
    13:00 +4°C° 0 mm 6 mps 736 mmHg 38%
    14:00 +4°C° 0 mm 6 mps 735 mmHg 38%
    15:00 +4°C° 0 mm 6 mps 735 mmHg 40%
    16:00 +3°C° 0 mm 5 mps 735 mmHg 43%
    17:00 +2°C° 0 mm 5 mps 735 mmHg 45%
    18:00 +1°C° 0 mm 6 mps 735 mmHg 47%
    19:00 -1°C° 0 mm 7 mps 736 mmHg 49%
    20:00 -2°C° 0 mm 7 mps 736 mmHg 51%
    21:00 -3°C° 0 mm 7 mps 736 mmHg 55%
    22:00 -3°C° 0 mm 7 mps 735 mmHg 60%
    23:00 -4°C° 0 mm 7 mps 735 mmHg 64%

    19 February, Tuesday

    Time Temperature Precipitation Wind Pressure Humidity
    00:00 -4°C° 0 mm 7 mps 735 mmHg 66%
    01:00 -4°C° 0 mm 7 mps 735 mmHg 68%
    02:00 -4°C° 0 mm 7 mps 734 mmHg 70%
    03:00 -4°C° 0.1 mm 7 mps 734 mmHg 73%
    04:00 -4°C° 0.1 mm 7 mps 734 mmHg 75%
    05:00 -5°C° 0.1 mm 8 mps 733 mmHg 77%
    06:00 -4°C° 0.9 mm 7 mps 733 mmHg 80%
    07:00 -4°C° 0.9 mm 7 mps 733 mmHg 84%
    08:00 -4°C° 0.9 mm 7 mps 733 mmHg 88%
    09:00 -4°C° 0.2 mm 7 mps 733 mmHg 88%
    10:00 -4°C° 0.2 mm 6 mps 732 mmHg 88%
    11:00 -4°C° 0.2 mm 6 mps 732 mmHg 88%
    12:00 -4°C° 0.1 mm 6 mps 731 mmHg 88%
    13:00 -3°C° 0.1 mm 6 mps 731 mmHg 88%
    14:00 -3°C° 0.1 mm 6 mps 730 mmHg 88%
    15:00 -3°C° 0.1 mm 6 mps 730 mmHg 88%
    16:00 -3°C° 0.1 mm 6 mps 731 mmHg 89%
    17:00 -2°C° 0.1 mm 5 mps 731 mmHg 89%
    18:00 -4°C° 0.1 mm 5 mps 731 mmHg 89%
    19:00 -4°C° 0.1 mm 5 mps 731 mmHg 89%
    20:00 -4°C° 0.1 mm 5 mps 731 mmHg 90%
    21:00 -4°C° 0 mm 5 mps 731 mmHg 90%
    22:00 -4°C° 0 mm 5 mps 731 mmHg 90%
    23:00 -4°C° 0 mm 5 mps 731 mmHg 90%

    20 February, Wednesday

    Time Temperature Precipitation Wind Pressure Humidity
    00:00 -4°C° 0 mm 5 mps 731 mmHg 89%
    01:00 -4°C° 0 mm 5 mps 732 mmHg 89%
    02:00 -4°C° 0 mm 5 mps 732 mmHg 88%
    03:00 -4°C° 0 mm 4 mps 732 mmHg 90%
    04:00 -5°C° 0 mm 4 mps 732 mmHg 92%
    05:00 -6°C° 0 mm 3 mps 732 mmHg 93%
    06:00 -7°C° 0 mm 4 mps 732 mmHg 90%
    07:00 -5°C° 0 mm 4 mps 733 mmHg 87%
    08:00 -5°C° 0 mm 4 mps 733 mmHg 83%
    09:00 -4°C° 0 mm 4 mps 733 mmHg 79%
    10:00 -2°C° 0 mm 4 mps 733 mmHg 75%
    11:00 0°C° 0 mm 3 mps 733 mmHg 71%
    12:00 +1°C° 0 mm 3 mps 732 mmHg 68%
    13:00 +3°C° 0 mm 2 mps 732 mmHg 65%
    14:00 +4°C° 0 mm 2 mps 731 mmHg 63%
    15:00 +3°C° 0 mm 2 mps 731 mmHg 67%
    16:00 +3°C° 0 mm 2 mps 731 mmHg 71%
    17:00 +2°C° 0 mm 2 mps 731 mmHg 76%
    18:00 0°C° 0 mm 3 mps 732 mmHg 80%
    19:00 -1°C° 0 mm 3 mps 732 mmHg 85%
    20:00 -2°C° 0 mm 3 mps 732 mmHg 90%
    21:00 -4°C° 0 mm 3 mps 732 mmHg 90%
    22:00 -4°C° 0 mm 3 mps 732 mmHg 90%
    23:00 -4°C° 0 mm 3 mps 732 mmHg 91%
    Show more